EST,Max TemperatureF,Mean TemperatureF,Min TemperatureF,Max Dew PointF,MeanDew PointF,Min DewpointF,Max Humidity, Mean Humidity, Min Humidity, Max Sea Level PressureIn, Mean Sea Level PressureIn, Min Sea Level PressureIn, Max VisibilityMiles, Mean VisibilityMiles, Min VisibilityMiles, Max Wind SpeedMPH, Mean Wind SpeedMPH, Max Gust SpeedMPH,PrecipitationIn, CloudCover, Events, WindDirDegrees
2012-12-1,65,56,46,46,43,39,76,64,52,30.29,30.22,30.17,10,10,10,12,4,17,0.00,4,,164
2012-12-2,65,62,58,58,54,46,93,78,62,30.17,30.13,30.09,10,9,2,17,9,26,0.12,7,Rain,209
2012-12-3,74,68,62,58,55,51,84,69,53,30.17,30.13,30.08,10,10,6,16,8,25,0.02,4,,192
2012-12-4,65,56,46,61,54,44,89,76,63,30.25,30.11,30.04,10,8,2,18,8,29,0.42,7,Rain-Thunderstorm,229
2012-12-5,56,46,35,45,38,32,100,74,47,30.37,30.31,30.25,10,5,0,10,4,15,0.00,0,Fog,33
2012-12-6,51,40,29,50,41,28,100,80,59,30.25,30.08,30.00,10,9,2,9,2,12,0.06,6,Rain,125
2012-12-7,58,54,50,57,53,50,100,97,93,30.00,29.93,29.87,10,4,1,8,3,12,1.57,8,Rain,181
2012-12-8,58,54,50,57,54,48,100,90,80,30.01,29.91,29.85,10,6,1,12,3,15,0.68,8,Rain-Thunderstorm,258
2012-12-9,65,58,50,61,56,48,100,92,84,30.00,29.85,29.73,10,7,1,22,5,28,1.11,8,Rain-Thunderstorm,172
2012-12-10,59,46,33,57,39,26,100,88,75,30.02,29.80,29.72,10,10,7,16,10,21,0.12,8,Rain-Thunderstorm,302
2012-12-11,37,33,28,27,25,21,85,69,52,30.29,30.14,30.01,10,10,10,13,4,16,0.00,5,,277
2012-12-12,46,35,24,26,24,22,92,67,41,30.42,30.38,30.31,10,10,9,8,1,10,0.00,0,,78
2012-12-13,49,36,23,29,26,22,92,67,42,30.45,30.38,30.30,10,10,9,6,1,9,0.00,0,,172
2012-12-14,56,42,28,30,27,24,92,62,32,30.35,30.27,30.15,10,10,9,9,2,13,0.00,0,,168
2012-12-15,59,52,44,52,42,31,93,73,53,30.16,29.96,29.82,10,9,2,18,5,25,0.21,6,Rain,168
2012-12-16,63,59,55,56,53,49,93,77,60,29.82,29.75,29.69,10,10,4,18,6,29,0.16,6,Rain-Thunderstorm,205
2012-12-17,60,54,47,55,50,44,93,83,72,29.75,29.65,29.55,10,8,2,20,5,23,0.24,7,Rain-Thunderstorm,214
2012-12-18,50,45,39,45,36,34,86,71,56,29.94,29.83,29.68,10,10,8,20,9,24,T,5,Rain,239
2012-12-19,51,44,37,40,37,33,85,71,56,30.09,30.00,29.87,10,10,9,10,5,17,0.00,1,,82
2012-12-20,57,45,32,52,41,25,96,75,54,29.86,29.57,29.35,10,9,2,36,16,49,0.58,7,Rain-Thunderstorm,187
2012-12-21,36,32,27,27,22,18,85,71,56,30.22,29.95,29.72,10,9,5,26,17,38,T,5,Rain-Snow,280
2012-12-22,39,30,20,20,18,16,84,64,44,30.35,30.24,30.11,10,10,10,17,4,21,0.00,0,,253
2012-12-23,54,41,28,39,28,19,71,56,41,30.09,29.99,29.93,10,10,10,10,4,15,0.00,1,,186
2012-12-24,51,43,34,47,43,28,100,88,76,30.06,29.85,29.79,10,5,1,17,5,20,0.10,8,Rain,290
2012-12-25,37,36,34,31,28,26,82,73,64,30.18,30.10,29.95,10,9,5,21,8,28,0.02,8,Rain,36
2012-12-26,35,34,32,34,31,25,100,89,78,30.03,29.66,29.51,10,5,1,21,12,32,0.82,8,Rain-Snow-Thunderstorm,351
2012-12-27,36,32,28,26,25,24,85,77,69,30.22,30.15,30.04,10,10,10,14,5,18,0.00,8,,337
2012-12-28,37,34,31,34,30,25,100,85,69,30.17,29.99,29.81,10,7,1,9,4,13,0.13,8,Rain-Snow,110
2012-12-29,34,31,27,34,29,19,100,85,69,30.32,29.93,29.75,10,5,1,21,10,29,0.19,8,Snow,298
2012-12-30,34,27,19,24,20,16,85,71,56,30.53,30.44,30.33,10,10,8,16,5,23,0.00,2,,243
2012-12-31,38,33,28,34,27,23,92,78,64,30.35,30.23,30.11,10,9,3,12,4,17,0.12,5,Rain,198